Regional Weather Roundup
Issued by NWS

Home | Current Version | Previous Version | Graphics & Text | Print | Product List | Glossary On
Versions: 1 2 3 4 5 6 7 8 9 10 11 12 13 14 15 16 17 18 19 20 21 22 23 24 25 26 27 28 29 30 31 32 33 34 35 36 37 38 39 40 41 42 43 44 45 46 47 48 49 50
000
ASUS43 KLMK 291910
RWRKY
KENTUCKY REGIONAL WEATHER ROUNDUP
NATIONAL WEATHER SERVICE LOUISVILLE KY
300 PM EDT FRI JUL 29 2016

NOTE "FAIR" INDICATES FEW OR NO CLOUDS BELOW 12,000 FEET
WITH NO SIGNIFICANT WEATHER AND/OR OBSTRUCTIONS TO VISIBILITY.

KYZ001>023-026-027-061>063-070>075-292000-
WESTERN AND SOUTH CENTRAL KENTUCKY

CITY           SKY/WX    TMP DP  RH WIND       PRES   REMARKS
PADUCAH        PTSUNNY   87  74  64 W6        29.91F HX  95
HENDERSON      MOSUNNY   88  73  62 S5        29.90F HX  96
OWENSBORO      CLOUDY    86  75  69 VRB5      29.92F HX  95
HOPKINSVILLE   LGT RAIN  84  75  74 W14       29.94F HX  92
BOWLING GREEN  MOSUNNY   81  74  79 SE9       29.95F
GLASGOW        PTSUNNY   77  73  89 S5        29.97F
$$

KYZ024-025-028>034-038-045-046-053-292000-
NORTH CENTRAL KENTUCKY

CITY           SKY/WX    TMP DP  RH WIND       PRES   REMARKS
LOUISVILLE/SDF CLOUDY    87  71  58 SW13      29.91F HX  93
LOUISVILLE/LOU CLOUDY    85  71  63 SW12      29.91F HX  90
FORT KNOX      MOSUNNY   83  72  69 SW9       29.93F
$$

KYZ035>037-039>044-047>052-055>060-089>105-292000-
NORTHEAST KENTUCKY

CITY           SKY/WX    TMP DP  RH WIND       PRES   REMARKS
LEXINGTON      LGT RAIN  80  73  79 SW6       29.95S
COVINGTON      PTSUNNY   86  70  58 SW6       29.92F HX  90
FRANKFORT      PTSUNNY   83  70  64 CALM      29.92F
$$

KYZ054-064>069-076>088-106>120-292000-
SOUTHEAST KENTUCKY

CITY           SKY/WX    TMP DP  RH WIND       PRES   REMARKS
JACKSON        PTSUNNY   81  72  74 VRB3      29.98F
LONDON         TSTM      73  68  84 SW9       30.01R VSB 1
SOMERSET       LGT RAIN  70  70 100 SW6       30.01S
MIDDLESBORO    PTSUNNY   86  71  61 S5        29.97F HX  92
MONTICELLO     LGT RAIN N/A N/A N/A W5        30.02F
$$





USA.gov is the U.S. government's official web portal to all federal, state and local government web resources and services.